RH
28 27 19 15 14 14 15 14 17 31 55 43 42 55 62 54 51 50 52 53 53 60 63 66 74 67 65 58 52 49 47 45 26 15 8 7 10 12 9 16 22 23 22 22 23 26 28 28 26
28 22 15 14 15 17 18 17 40 46 51 43 50 36 41 40 46 45 45 54 54 68 68 62 69 75 72 67 58 49 48 30 21 13 6 8 8 12 19 23 23 23 22 23 27 29 30 28 29
26 16 14 14 18 19 17 27 37 34 51 52 46 51 50 47 46 55 53 56 53 69 71 64 68 75 77 72 59 53 40 26 23 9 6 10 18 22 25 24 24 25 23 26 30 31 32 32 34
22 15 16 20 18 16 31 25 56 44 44 46 57 64 67 61 57 57 50 52 66 69 68 66 70 81 89 84 64 55 38 33 24 8 11 21 24 25 27 26 26 25 26 30 33 33 34 37 43
21 16 18 19 19 20 26 39 63 57 58 66 65 64 59 58 54 56 59 67 74 77 67 65 81 92 100 95 72 56 49 34 16 8 22 27 29 30 28 26 25 26 29 34 36 37 39 45 54
18 19 23 21 18 22 34 45 50 58 60 61 54 52 52 51 47 51 69 76 81 82 79 82 94 99 98 95 84 63 42 31 24 17 27 31 33 31 28 26 27 30 32 36 38 42 46 50 55
16 26 23 20 21 35 42 47 47 50 44 49 55 57 54 46 50 59 71 75 86 83 91 95 100 100 100 99 93 62 46 47 46 22 32 34 34 33 30 29 31 33 35 38 44 50 53 56 60
16 28 24 22 24 44 36 50 47 45 45 43 55 61 60 56 54 59 89 92 96 91 94 98 99 100 100 96 95 77 69 69 32 27 35 36 38 37 34 35 35 34 40 45 49 58 64 65 62
29 26 25 25 42 27 35 49 45 42 50 58 61 68 66 63 63 62 67 90 97 98 98 99 100 99 100 98 95 97 90 26 19 31 37 41 42 40 41 39 39 42 45 47 64 68 69 68 66
29 26 23 24 26 29 39 40 38 42 49 60 71 73 71 67 68 68 65 91 90 99 99 99 99 99 92 100 99 90 46 27 22 27 36 41 45 45 44 44 43 44 47 62 70 73 77 74 66
30 24 24 24 29 33 40 40 40 43 50 59 64 68 71 76 81 81 82 81 82 82 92 100 100 100 100 98 76 31 24 23 23 27 34 39 43 50 46 45 47 51 59 64 76 74 78 72 67
29 24 24 29 30 40 48 50 43 50 50 59 70 74 75 76 91 90 89 98 95 100 100 100 100 100 100 95 52 38 32 25 19 20 28 43 44 43 48 50 50 59 61 65 69 73 75 72 72
31 24 29 36 40 49 54 48 60 43 40 68 74 79 83 90 91 91 91 94 100 100 100 98 100 97 74 69 58 36 23 17 20 20 25 31 38 44 46 51 60 66 67 72 81 85 84 83 80
37 37 40 40 45 54 55 58 56 41 45 79 83 86 89 94 94 93 91 97 99 99 100 100 100 74 46 35 28 20 14 14 15 21 28 32 34 49 61 67 71 74 80 84 84 89 89 84 78
48 46 45 46 47 53 55 53 54 54 49 50 75 99 100 98 98 96 99 79 71 74 60 51 40 35 39 34 22 19 17 19 21 25 36 60 71 77 80 74 67 79 74 70 88 89 85 81 73
49 42 43 48 50 49 52 48 53 51 62 45 65 71 78 97 85 98 65 75 73 66 56 52 50 39 39 24 26 32 44 57 74 74 72 67 65 71 69 66 59 66 73 78 87 84 80 72 73
43 38 37 41 42 47 41 44 48 46 62 67 36 60 79 79 73 74 79 88 87 67 42 44 43 38 38 43 65 72 78 76 79 80 79 76 71 61 67 62 67 73 76 76 85 81 74 78 70
37 37 36 36 40 40 40 36 40 45 53 72 66 35 54 57 68 71 71 78 60 43 48 47 51 50 62 71 75 80 82 84 87 88 91 82 68 64 61 68 69 66 66 70 74 77 76 72 58
39 39 39 37 39 41 37 35 34 39 47 49 55 52 32 49 46 53 50 42 39 41 44 50 62 70 76 81 84 87 86 81 83 90 86 74 59 56 70 70 68 66 67 72 76 67 62 59 57
42 43 39 38 40 37 34 33 34 36 39 47 52 44 40 30 26 29 37 44 44 46 54 64 69 73 80 85 90 89 82 81 86 88 75 69 54 64 68 66 66 67 70 74 76 73 64 71 60
43 42 39 43 37 34 30 30 31 32 36 39 50 53 44 35 30 29 31 38 44 48 52 57 63 68 74 72 73 78 76 79 85 89 74 60 59 65 61 63 68 76 74 71 75 78 73 76 81
41 38 41 43 39 34 31 32 28 30 31 34 36 46 50 43 37 35 35 36 40 46 53 58 63 64 66 64 67 76 82 85 96 89 63 62 62 61 62 68 79 89 90 88 79 75 71 70 71
40 39 41 42 39 40 36 36 28 24 25 22 28 32 40 43 41 38 38 38 45 51 52 53 57 61 65 64 67 74 80 88 96 95 65 58 57 61 65 79 84 93 97 90 98 97 97 64 79
38 41 42 40 41 45 38 37 31 27 26 29 30 28 33 40 44 47 49 51 57 60 70 74 77 79 84 74 68 75 80 91 98 78 60 54 56 65 73 83 94 99 96 99 99 99 78 77 97
40 40 42 44 48 42 40 44 30 26 30 31 28 33 35 38 41 46 50 53 55 55 61 71 74 68 71 73 73 73 82 94 96 74 55 55 64 72 80 84 90 99 96 99 99 90 92 69 85
39 40 37 39 44 37 41 42 26 27 26 24 20 23 32 33 37 44 49 52 54 59 66 71 73 69 66 76 80 90 89 97 92 71 64 62 70 75 73 79 89 100 100 92 100 69 87 83 90
38 42 38 39 49 55 39 32 29 27 25 26 26 31 32 32 31 34 39 48 55 64 65 81 68 71 85 97 69 69 81 80 76 81 74 80 69 72 75 88 100 100 98 81 73 70 93 89 88
40 41 43 40 50 47 39 34 29 26 29 35 27 32 36 30 32 36 40 49 58 67 75 79 67 77 100 76 56 60 69 71 79 72 66 74 82 86 96 84 99 97 75 80 86 89 88 84 82
40 44 39 42 41 46 47 36 27 28 29 28 30 27 20 19 20 19 29 39 53 67 69 75 74 69 54 44 50 59 65 69 66 71 87 88 84 91 99 92 99 93 82 99 86 90 83 81 76
40 36 32 42 43 43 45 41 33 30 31 34 31 30 27 28 26 23 18 13 14 41 58 56 65 56 57 55 52 56 50 53 79 90 89 89 92 99 81 93 92 84 97 93 93 85 82 78 59
Wind_Speed
10 12 11 10 6 5 7 4 8 6 15 11 9 8 5 5 9 6 3 6 10 16 23 27 26 26 24 22 20 19 16 14 11 6 7 7 7 9 11 10 10 10 8 9 10 11 12 12 13
9 11 9 9 7 10 6 3 1 2 11 13 12 16 17 14 16 15 11 10 10 18 24 28 29 27 24 22 21 19 16 13 10 8 10 12 12 13 12 11 9 8 7 8 10 10 11 13 14
10 10 8 5 8 6 3 3 9 12 5 11 16 11 14 11 11 14 10 7 10 20 25 29 30 29 27 24 22 21 17 14 8 10 13 14 12 12 12 9 8 7 7 8 9 10 12 13 14
9 9 7 8 5 3 2 6 6 4 6 8 11 14 13 12 7 10 9 12 17 20 24 28 29 30 28 25 24 23 19 14 11 13 15 15 13 12 11 9 7 5 6 7 7 9 11 11 11
9 8 7 4 4 3 5 2 3 1 5 6 6 7 7 9 8 9 11 15 17 20 25 30 31 30 29 26 25 23 19 16 15 16 16 16 14 13 11 9 6 5 5 5 8 9 10 10 12
7 5 3 3 3 7 6 2 3 1 2 5 7 6 8 7 7 8 14 15 18 23 28 32 33 30 31 30 30 29 25 21 17 15 17 17 15 13 10 6 5 4 5 6 8 9 9 12 13
7 5 4 2 4 7 8 4 5 1 3 7 9 9 10 10 9 10 15 17 20 24 30 35 35 34 37 38 37 31 25 24 18 16 18 17 15 12 7 5 2 2 4 5 6 7 9 9 11
5 4 4 2 5 6 9 7 5 7 8 9 8 5 5 4 3 7 9 14 19 25 28 35 41 43 41 39 39 30 27 26 24 20 19 17 14 10 7 3 1 3 3 5 7 7 8 10 11
2 4 3 2 2 8 8 7 8 11 13 12 11 11 10 9 10 9 10 13 20 27 25 35 38 39 41 43 40 39 27 20 19 20 17 15 13 10 8 4 3 4 4 6 6 8 10 10 13
2 4 2 3 8 7 7 9 11 13 13 14 13 13 14 18 19 15 12 17 20 23 24 24 30 26 27 24 31 34 25 17 19 18 15 13 10 10 6 5 5 6 7 7 9 11 11 13 14
3 3 5 6 8 5 4 7 10 10 10 11 12 13 15 11 9 11 14 12 15 19 23 24 29 35 24 25 33 24 17 19 20 18 14 13 10 9 7 8 8 6 8 10 11 13 13 14 16
6 6 9 5 4 5 6 8 6 7 11 10 10 8 6 10 12 12 12 12 10 30 33 39 37 25 32 23 25 23 18 18 16 14 12 11 10 10 10 10 9 9 10 12 14 15 16 16 18
7 8 5 2 2 5 5 5 5 11 17 15 15 12 8 10 12 11 8 6 29 17 19 17 14 26 38 38 36 19 14 14 13 11 11 12 11 10 9 10 9 11 12 13 15 16 17 19 19
3 4 3 2 1 4 4 5 5 9 18 6 8 10 9 9 8 9 11 10 14 18 16 18 15 40 30 23 21 17 15 15 15 14 12 10 9 9 8 9 12 14 13 14 16 15 17 18 17
6 4 2 2 1 2 4 6 5 7 14 14 7 11 10 8 9 8 13 23 35 40 41 37 34 29 24 20 18 16 16 15 13 12 11 10 8 7 7 10 11 10 13 16 12 14 16 16 20
4 3 1 3 3 3 6 9 6 7 9 12 14 18 14 13 14 13 31 22 22 22 23 24 22 19 19 21 19 17 16 14 13 12 11 10 9 9 10 12 13 12 13 11 12 15 16 19 23
4 3 3 0 5 3 7 9 9 6 4 6 8 14 21 19 28 27 17 15 14 14 18 20 20 20 20 20 20 17 13 11 11 9 9 9 7 9 10 12 12 11 11 13 14 16 19 22 26
10 8 4 6 5 7 8 8 8 7 4 0 3 9 17 22 21 17 17 18 17 21 21 19 18 20 20 19 16 14 10 9 8 8 7 8 9 10 11 12 12 12 13 14 17 21 24 26 27
9 6 8 8 11 7 8 11 7 8 6 3 5 5 12 16 15 17 18 18 20 21 21 19 18 17 15 14 11 9 7 7 6 7 11 9 10 12 13 14 14 15 16 19 22 24 25 28 30
9 11 12 15 2 9 7 6 7 10 6 4 2 9 12 14 16 17 20 21 19 18 18 17 16 14 13 12 11 10 9 7 8 9 9 9 12 14 15 15 16 16 19 24 27 27 25 31 28
8 5 7 10 4 7 7 8 11 11 12 10 10 10 13 10 11 14 15 17 18 16 15 13 13 13 12 11 13 13 9 10 8 10 11 12 15 16 16 16 16 17 21 23 24 27 29 36 31
12 4 6 9 3 1 2 3 7 12 14 16 14 15 14 16 17 16 15 14 13 14 15 16 18 17 15 15 13 13 12 12 14 14 14 13 15 15 16 16 16 19 24 31 29 26 30 32 32
9 6 7 6 3 3 4 4 6 9 13 13 16 18 17 16 17 18 15 15 14 15 16 16 17 19 19 18 15 15 15 14 17 18 15 13 15 16 18 19 21 30 31 30 29 33 40 33 37
6 6 5 3 2 2 4 8 5 8 10 7 9 16 21 20 19 17 18 19 17 18 17 17 19 20 20 21 17 16 17 17 18 17 16 15 17 17 20 23 29 31 32 33 34 31 44 45 37
7 6 1 1 2 2 5 4 10 10 8 8 8 9 16 22 23 21 21 20 20 19 18 18 16 15 15 16 18 16 18 20 19 19 18 17 19 22 24 26 29 36 35 35 33 42 41 42 41
10 9 5 3 3 2 4 6 6 10 12 10 11 13 12 18 22 22 21 21 17 16 17 15 11 13 14 13 15 18 20 20 20 21 20 21 23 24 27 31 31 35 36 37 33 42 37 40 38
11 11 7 5 3 1 5 8 11 6 9 14 9 7 4 6 11 17 17 17 18 21 14 15 15 15 16 16 16 19 21 21 21 20 20 24 21 23 25 26 34 44 34 43 44 40 42 42 42
11 6 4 4 3 3 3 5 8 5 7 8 7 3 3 5 9 13 14 16 14 13 17 18 16 15 17 19 19 19 22 21 21 20 18 19 20 26 25 24 34 30 38 44 41 42 42 42 37
17 13 9 5 4 2 2 5 6 8 9 10 11 11 6 1 3 8 13 14 15 17 18 17 16 15 18 17 18 20 22 22 17 20 18 22 26 34 34 26 31 42 36 40 43 42 42 38 33
18 16 12 8 5 9 9 16 16 3 5 14 12 11 9 4 6 8 9 10 15 19 20 19 17 15 11 10 9 11 15 19 21 21 23 17 27 28 28 32 35 33 37 41 42 41 37 33 34
Wind_Direction
294 298 295 283 247 226 242 256 217 195 226 285 217 208 215 243 250 245 247 225 220 205 210 204 201 199 194 194 196 197 193 193 194 197 221 191 177 150 134 128 116 105 94 81 74 68 64 58 50
299 300 285 262 236 226 244 269 216 245 221 221 256 239 235 258 271 250 262 245 222 199 209 208 202 198 195 195 198 195 191 191 183 206 193 160 154 140 136 128 122 106 92 74 66 59 52 47 42
302 285 257 241 243 243 247 303 302 276 246 206 235 245 235 233 249 244 229 257 236 209 209 207 202 199 197 196 196 191 189 189 182 203 176 154 152 144 138 131 117 105 80 63 55 50 42 37 35
301 271 247 244 254 277 314 335 349 222 198 218 203 230 234 235 238 252 236 248 225 215 210 207 206 203 199 196 194 191 187 184 190 197 163 154 158 151 143 132 129 107 76 54 44 39 33 32 34
302 273 256 305 259 251 344 22 36 138 209 194 191 224 222 237 242 243 230 212 216 213 208 208 206 202 201 197 194 188 188 178 187 169 156 158 162 156 155 159 137 95 68 45 34 25 24 23 22
284 271 287 8 265 307 347 11 96 122 209 213 279 267 261 271 274 231 213 214 212 209 202 205 202 199 198 193 191 186 179 171 153 172 165 164 166 169 172 153 131 94 51 28 21 14 8 8 356
265 271 297 305 326 8 15 11 53 33 305 279 283 257 277 287 279 214 210 210 206 200 205 201 199 201 203 190 184 185 171 174 152 172 170 168 174 178 176 169 135 64 29 7 2 2 356 338 343
259 290 303 295 337 359 7 346 334 320 305 297 288 266 281 271 300 255 207 197 205 202 213 211 206 201 190 174 170 166 167 183 173 179 174 177 178 179 178 197 26 328 355 342 350 344 324 327 336
276 279 298 295 22 339 344 332 325 316 297 290 282 256 261 260 288 269 248 226 208 216 218 216 203 199 168 169 167 163 164 161 173 181 180 185 184 190 187 182 216 272 310 319 316 315 311 316 322
297 286 148 327 326 331 340 339 324 306 302 287 276 258 261 271 270 265 229 217 223 216 221 194 191 188 189 172 176 139 149 159 179 186 189 182 185 199 204 206 237 265 295 304 307 305 305 311 317
281 300 281 299 304 251 264 293 303 312 313 302 284 266 266 260 243 229 216 224 214 228 230 216 190 192 195 176 125 135 152 175 184 180 180 193 197 204 221 238 244 266 285 295 297 298 299 305 308
273 273 281 302 275 273 277 310 326 336 319 292 267 261 274 256 225 220 236 224 248 231 215 184 162 164 174 170 140 145 161 180 175 175 182 196 207 221 229 244 264 273 281 291 295 297 299 301 313
243 266 278 176 205 278 298 319 351 21 8 273 254 247 251 220 225 214 204 213 218 210 217 188 165 143 129 133 140 142 149 162 171 173 186 201 212 226 244 254 261 278 287 292 299 301 298 304 310
215 125 136 171 262 305 289 325 360 35 0 27 211 221 216 208 193 200 200 200 201 176 182 192 196 121 131 131 134 137 151 159 166 177 187 198 216 227 243 264 273 273 281 292 293 300 301 306 310
118 101 142 166 273 319 332 350 356 328 15 49 82 185 173 171 191 188 185 123 116 122 120 125 133 136 132 136 142 148 158 163 170 176 188 204 211 221 249 272 274 277 288 293 297 297 298 311 315
164 155 77 279 307 348 342 340 347 351 26 13 95 115 118 113 132 135 135 127 129 131 133 129 132 133 143 142 146 152 160 165 169 178 191 210 226 241 260 288 297 300 296 296 298 302 314 313 315
239 211 229 272 337 304 318 331 344 350 8 39 35 130 131 133 141 140 146 151 137 141 137 138 140 141 145 149 154 156 160 170 179 191 207 222 233 250 270 293 299 292 300 309 308 301 305 308 311
205 201 246 258 302 298 295 305 293 323 320 187 77 100 151 145 146 150 154 158 152 146 146 149 151 155 160 156 162 167 171 178 193 210 236 243 257 264 287 294 288 298 304 307 305 303 301 301 306
209 257 248 281 293 293 293 283 288 281 290 284 140 141 125 152 164 161 163 160 157 164 164 166 168 169 170 172 176 179 186 198 210 230 244 246 260 272 288 285 290 299 305 305 305 300 304 306 306
245 262 251 293 263 305 297 264 244 250 252 282 257 166 158 167 161 162 165 167 168 169 172 174 175 176 180 190 199 208 219 229 240 245 252 259 263 274 282 286 292 300 307 303 297 294 301 315 309
254 234 254 295 297 272 278 251 248 254 249 242 230 200 190 191 179 171 172 175 179 178 181 186 194 201 206 210 219 225 235 236 255 253 243 254 263 278 283 286 288 296 298 300 302 298 296 309 310
264 264 239 326 275 261 255 279 258 257 263 252 234 222 211 198 200 197 189 187 187 189 194 201 206 210 220 231 233 232 235 245 259 259 252 257 269 274 281 287 283 295 296 291 292 299 319 314 313
258 262 284 298 276 282 233 255 276 280 280 273 246 234 221 207 205 208 207 197 193 203 212 219 224 232 234 240 240 243 238 247 258 257 251 261 272 279 289 287 291 286 286 301 283 298 305 321 315
249 247 275 220 250 239 233 222 276 281 298 294 271 256 238 227 221 215 212 209 208 211 218 222 227 233 239 240 242 249 245 249 264 249 257 265 271 282 282 281 277 293 296 301 289 290 315 321 312
237 220 199 159 162 201 189 232 268 302 292 288 287 260 243 240 236 231 228 222 220 224 227 236 240 242 244 247 256 261 253 248 259 248 258 264 267 276 283 287 292 286 303 295 288 301 310 316 310
199 204 190 190 191 192 218 226 258 296 309 301 289 279 243 225 220 231 237 237 237 240 236 237 232 246 246 278 276 264 259 252 252 251 263 266 271 277 288 287 300 283 281 306 301 311 309 315 315
217 210 214 169 202 217 235 252 283 267 328 330 297 257 246 208 218 215 215 227 236 244 251 250 228 246 270 284 272 254 251 246 244 258 271 276 281 285 302 304 294 280 296 310 313 313 312 315 310
221 212 183 208 175 241 242 272 266 311 337 35 21 285 251 250 206 208 214 213 218 233 246 251 240 265 265 282 268 249 238 237 248 260 279 273 285 282 281 289 282 291 304 303 310 311 310 310 306
218 218 237 232 214 215 267 250 267 291 305 324 347 343 0 279 240 222 212 210 214 224 236 242 245 262 277 267 259 245 243 247 256 260 274 284 288 286 276 292 290 304 305 305 310 309 308 305 302
230 245 255 221 227 228 248 263 282 268 301 312 316 321 330 294 285 272 263 244 229 223 226 232 238 252 270 277 270 264 261 244 262 264 273 291 296 264 309 293 299 305 302 304 306 307 304 303 301